User: anonymous   Login
Location: Unspecified
(0.0000°N, 0.0000°E)
Time: 02:42:38
(UTC+00:00)
Language:

P83-1 Hilat - Orbit

View from above orbital plane
View from above orbital plane
View from above satellite
View from above satellite

Ground track
Ground track

The orbit data is extracted from the following two-line orbital elements,

1 14154U 83063A   17146.96786088 +.00000115 +00000-0 +33808-4 0  9999
2 14154 082.0243 348.0140 0039821 209.0649 260.9815 14.36283199772473
Epoch (UTC): 26 May 2017 23:13:43
Eccentricity: 0.0039821
inclination: 82.0243°
perigee height: 742 km
apogee height: 799 km
right ascension of ascending node: 348.0140°
argument of perigee: 209.0649°
revolutions per day: 14.36283199
mean anomaly at epoch: 260.9815°
orbit number at epoch: 77247

The dashed part of the orbit path shows where the satellite is in the earth's shadow,  

DLR